📊 Raw Sensor Data

Showing records 47651 to 47675 of 85,089 total

ID Distance (ft) Battery V Battery A Int Temp (°F) Int Humid (%) Ext Temp (°F) Solar V RSSI SNR Time Stamp
37451 -- 3.86 -5 64 48 64 0.80 -78 7 04/10/2025 07:45 PM
37450 15.5 3.85 -5 66 50 65 4.50 -79 8 04/10/2025 07:30 PM
37449 -- 3.88 0 68 51 66 4.60 -78 8 04/10/2025 07:15 PM
37448 -- 3.91 9 71 53 67 4.50 -77 9 04/10/2025 07:00 PM
37447 -- 3.91 7 77 51 70 4.50 -79 8 04/10/2025 06:45 PM
37446 -- 3.84 0 86 46 80 5.10 -82 9 04/10/2025 06:15 PM
37445 -- 3.84 0 88 45 80 5.10 -77 9 04/10/2025 06:00 PM
37444 -- 3.84 0 88 45 82 5.10 -78 9 04/10/2025 05:45 PM
37443 -- 3.84 0 88 45 80 5.10 -79 9 04/10/2025 05:31 PM
37442 -- 3.84 0 87 46 79 5.10 -80 7 04/10/2025 05:15 PM
37441 -- 3.84 0 91 44 80 5.10 -78 9 04/10/2025 05:00 PM
37440 -- 3.84 0 93 43 85 5.10 -78 8 04/10/2025 04:46 PM
37439 -- 3.84 0 94 42 79 5.10 -77 8 04/10/2025 04:30 PM
37438 -- 3.90 0 95 40 87 5.10 -76 8 04/10/2025 04:15 PM
37437 -- 3.89 0 93 40 85 5.10 -78 7 04/10/2025 04:00 PM
37436 -- 3.84 0 89 42 80 5.10 -77 8 04/10/2025 03:45 PM
37435 -- 3.84 0 84 46 77 5.10 -77 8 04/10/2025 03:30 PM
37434 -- 3.84 0 90 42 78 5.10 -77 9 04/10/2025 03:15 PM
37433 -- 3.84 0 93 40 81 5.10 -77 9 04/10/2025 03:00 PM
37432 -- 3.84 0 91 41 80 5.10 -77 9 04/10/2025 02:45 PM
37431 -- 3.84 0 94 39 81 5.10 -77 9 04/10/2025 02:30 PM
37430 -- 3.84 0 94 38 81 5.10 -77 9 04/10/2025 02:15 PM
37429 -- 3.84 0 92 38 84 5.10 -76 9 04/10/2025 02:00 PM
37428 -- 3.84 0 88 38 78 5.10 -78 8 04/10/2025 01:30 PM
37427 -- 3.84 0 84 39 81 5.10 -76 9 04/10/2025 01:15 PM